Location: Bonn
(50.7330°N, 7.1000°E)
Time: 15:20:52
(UTC+02:00)

Cosmos 1933 Rocket - Visible Passes

Search period start: 20 April 2014 00:00
Search period end: 30 April 2014 00:00
Orbit: 609 x 632 km, 82.5° (Epoch: 19 April)

Date Brightness Start Highest point End Pass type
(mag) Time Alt. Az. Time Alt. Az. Time Alt. Az.
21 Apr 6.4 04:36:52 10° ESE 04:39:23 15° E 04:41:54 10° NE visible
22 Apr 5.8 04:53:20 10° SE 04:56:55 25° E 05:00:32 10° NNE visible
23 Apr 4.8 05:10:25 10° SSE 05:14:33 43° E 05:18:44 10° NNE visible
24 Apr 3.8 05:27:55 10° S 05:32:17 76° E 05:36:43 10° NNE visible
25 Apr 6.2 04:09:58 10° ESE 04:12:43 17° E 04:15:29 10° NE visible
26 Apr 5.5 04:26:33 10° SSE 04:30:16 27° E 04:34:01 10° NNE visible
27 Apr 4.5 04:43:43 10° SSE 04:47:54 47° E 04:52:10 10° NNE visible
28 Apr 6.6 03:27:48 10° E 03:28:34 10° E 03:29:20 10° ENE visible
28 Apr 3.6 05:01:16 10° S 05:05:39 83° E 05:10:06 10° NNE visible
29 Apr 6.1 03:43:05 10° SE 03:46:02 18° E 03:49:01 10° NE visible
29 Apr 3.7 05:19:10 10° SSW 05:23:29 57° WNW 05:27:53 10° N visible
